Terug naar catalogus

SL-8 R/B

ActiefSSO
NORAD 26387·ROCKET BODY·🇷🇺 Russia

Gelanceerd Jun 28, 2000 vanaf Plesetsk Cosmodrome

Loading…

Volgende Passages (komende 24 uur)

TLE

VersSource: Space-Track

Epoch: Sep 14, 2026, 07:27 UTC

1 26387U 00033D   26257.31101753  .00000646  00000-0  10515-3 0  9996
2 26387  97.8511 226.3558 0023574 335.3575  24.6506 14.74091162661520

Volg SL-8 R/B in realtime met AllMySat

Download on the App Store